Location: Fenile
(46.0500°N, 9.5500°E)
Time: 07:35:58
(UTC+00:00)

USA 306 - Pass Details

Date: 03 March 2021
Orbit: 564 x 577 km, 54.0° (Epoch: 10 April)

Event Time Altitude Azimuth Distance (km) Brightness Sun altitude
Rises 18:19:46 0° 283° (WNW) 2,783 8.3 -12.7°
Reaches altitude 10° 18:22:17 10° 295° (WNW) 1,883 6.7 -13.1°
Maximum altitude 18:26:00 28° 355° (N) 1,088 4.4 -13.8°
Enters shadow 18:28:59 14° 50° (NE) 1,637 4.8 -14.3°
